BLY13KM LFMT-EGKK

Flight info

Callsign BLY13KM
Flight time 1h 27m
Altitude 34000
Route NG DCT MOLEN DCT MTL DCT ETREK DCT MADOT DCT MOPEM/N0438F380 DCT CACHI DCT AVLON DCT OKRIX DCT BRY DCT CLM DCT KOPOR DCT KESAX DCT KUNAV
Aircraft A319/M-SDE2E3FGHIJ1RWXYZ/LB1

Departure

Time 2026-04-18 09:52
Airport Montpellier-Méditerranée Airport (LFMT)

Arrival

Time 2026-04-18 11:19
Airport London Gatwick Airport (EGKK)
Time Latitude Longitude Altitude Speed Heading
2026-04-18 09:05 43.57980 3.95947 15 ft 0 kts 206°
2026-04-18 09:10 43.57980 3.95948 15 ft 0 kts 206°
2026-04-18 09:42 43.57999 3.95959 17 ft 4 kts 201°
2026-04-18 09:43 43.58024 3.95970 15 ft 4 kts 181°
2026-04-18 09:43 43.58045 3.95962 15 ft 3 kts 121°
2026-04-18 09:43 43.58048 3.95957 19 ft 0 kts 115°
2026-04-18 09:47 43.58047 3.95960 15 ft 1 kts 115°
2026-04-18 09:47 43.58039 3.95984 18 ft 4 kts 115°
2026-04-18 09:47 43.58020 3.96025 15 ft 6 kts 125°
2026-04-18 09:48 43.57991 3.96081 15 ft 8 kts 125°
2026-04-18 09:48 43.57967 3.96158 15 ft 10 kts 84°
2026-04-18 09:48 43.58012 3.96235 16 ft 11 kts 32°
2026-04-18 09:48 43.58038 3.96305 15 ft 9 kts 111°
2026-04-18 09:49 43.57998 3.96388 14 ft 12 kts 124°
2026-04-18 09:49 43.57948 3.96487 14 ft 14 kts 125°
2026-04-18 09:49 43.57885 3.96613 11 ft 16 kts 124°
2026-04-18 09:49 43.57823 3.96736 12 ft 17 kts 124°
2026-04-18 09:50 43.57759 3.96862 11 ft 17 kts 125°
2026-04-18 09:50 43.57707 3.96965 13 ft 6 kts 124°
2026-04-18 09:50 43.57719 3.96978 13 ft 3 kts 17°
2026-04-18 09:50 43.57765 3.97006 14 ft 11 kts 34°
2026-04-18 09:51 43.57844 3.97069 13 ft 14 kts
2026-04-18 09:51 43.57943 3.96899 14 ft 46 kts 305°
2026-04-18 09:51 43.58242 3.96310 18 ft 103 kts 304°
2026-04-18 09:51 43.58756 3.95303 115 ft 142 kts 308°
2026-04-18 09:52 43.59476 3.94415 644 ft 141 kts 338°
2026-04-18 09:52 43.60437 3.94161 1211 ft 143 kts
2026-04-18 09:52 43.61392 3.94531 1768 ft 147 kts 29°
2026-04-18 09:52 43.62176 3.95569 2120 ft 169 kts 56°
2026-04-18 09:53 43.62870 3.97012 2505 ft 192 kts 55°
2026-04-18 09:53 43.63663 3.98627 2907 ft 213 kts 54°
2026-04-18 09:53 43.64538 4.00396 3427 ft 232 kts 54°
2026-04-18 09:53 43.65493 4.02326 4017 ft 253 kts 54°
2026-04-18 09:54 43.66512 4.04358 4919 ft 261 kts 53°
2026-04-18 09:54 43.67589 4.06411 5904 ft 266 kts 52°
2026-04-18 09:54 43.68696 4.08483 6856 ft 270 kts 51°
2026-04-18 09:54 43.69823 4.10583 7771 ft 274 kts 51°
2026-04-18 09:55 43.70969 4.12720 8691 ft 278 kts 52°
2026-04-18 09:55 43.72128 4.14886 9604 ft 283 kts 52°
2026-04-18 09:55 43.73305 4.17093 10425 ft 290 kts 52°
2026-04-18 09:55 43.74546 4.19423 10759 ft 313 kts 52°
2026-04-18 09:56 43.75861 4.21900 11318 ft 324 kts 52°
2026-04-18 09:56 43.77205 4.24438 12032 ft 329 kts 51°
2026-04-18 09:56 43.78564 4.27012 12786 ft 334 kts 51°
2026-04-18 09:56 43.79940 4.29628 13516 ft 339 kts 51°
2026-04-18 09:57 43.81334 4.32282 14221 ft 343 kts 51°
2026-04-18 09:57 43.82748 4.34970 14896 ft 347 kts 51°
2026-04-18 09:57 43.84202 4.37652 15556 ft 349 kts 47°
2026-04-18 09:57 43.85950 4.39983 16226 ft 349 kts 35°
2026-04-18 09:58 43.87999 4.41777 16899 ft 349 kts 24°
2026-04-18 09:58 43.90249 4.43058 17585 ft 350 kts 18°
2026-04-18 09:58 43.92532 4.44272 18284 ft 353 kts 18°
2026-04-18 09:58 43.94833 4.45498 18906 ft 356 kts 18°
2026-04-18 09:59 43.97161 4.46746 19413 ft 362 kts 18°
2026-04-18 09:59 43.99526 4.48020 19952 ft 366 kts 18°
2026-04-18 09:59 44.01881 4.49292 20486 ft 371 kts 18°
2026-04-18 10:00 44.06744 4.51924 21580 ft 379 kts 18°
2026-04-18 10:00 44.09220 4.53251 22112 ft 383 kts 18°
2026-04-18 10:00 44.11728 4.54583 22633 ft 388 kts 18°
2026-04-18 10:00 44.14262 4.55923 23177 ft 392 kts 18°
2026-04-18 10:01 44.16829 4.57280 23673 ft 397 kts 18°
2026-04-18 10:01 44.19423 4.58654 24141 ft 400 kts 18°
2026-04-18 10:01 44.22027 4.60038 24626 ft 402 kts 18°
2026-04-18 10:01 44.24649 4.61433 25080 ft 405 kts 18°
2026-04-18 10:02 44.27290 4.62841 25524 ft 408 kts 18°
2026-04-18 10:02 44.29949 4.64264 25965 ft 411 kts 18°
2026-04-18 10:02 44.32626 4.65701 26400 ft 413 kts 18°
2026-04-18 10:02 44.35319 4.67146 26820 ft 417 kts 18°
2026-04-18 10:03 44.38036 4.68604 27238 ft 420 kts 18°
2026-04-18 10:03 44.40770 4.70069 27644 ft 423 kts 18°
2026-04-18 10:03 44.43531 4.71545 28074 ft 426 kts 18°
2026-04-18 10:03 44.46302 4.73029 28478 ft 429 kts 18°
2026-04-18 10:04 44.49093 4.74529 28913 ft 431 kts 18°
2026-04-18 10:04 44.51917 4.75994 29334 ft 433 kts 14°
2026-04-18 10:04 44.54848 4.76941 29736 ft 433 kts
2026-04-18 10:04 44.57845 4.77215 30139 ft 432 kts 356°
2026-04-18 10:05 44.60831 4.76820 30489 ft 432 kts 348°
2026-04-18 10:05 44.63805 4.76150 30830 ft 434 kts 348°
2026-04-18 10:05 44.66796 4.75482 31160 ft 436 kts 348°
2026-04-18 10:05 44.69802 4.74816 31480 ft 439 kts 348°
2026-04-18 10:06 44.72826 4.74150 31790 ft 441 kts 348°
2026-04-18 10:06 44.75858 4.73479 32207 ft 440 kts 348°
2026-04-18 10:06 44.78880 4.72810 32689 ft 439 kts 348°
2026-04-18 10:06 44.81892 4.72144 33151 ft 438 kts 348°
2026-04-18 10:07 44.84901 4.71477 33603 ft 437 kts 348°
2026-04-18 10:07 44.87901 4.70808 34041 ft 437 kts 348°
2026-04-18 10:07 44.90898 4.70138 34480 ft 436 kts 347°
2026-04-18 10:07 44.93890 4.69466 34884 ft 435 kts 347°
2026-04-18 10:08 44.96877 4.68794 35274 ft 434 kts 347°
2026-04-18 10:08 44.99858 4.68127 35653 ft 433 kts 347°
2026-04-18 10:08 45.02838 4.67462 36032 ft 433 kts 347°
2026-04-18 10:08 45.05807 4.66798 36413 ft 432 kts 347°
2026-04-18 10:09 45.08771 4.66134 36779 ft 431 kts 347°
2026-04-18 10:09 45.11731 4.65469 37152 ft 430 kts 348°
2026-04-18 10:09 45.14679 4.64804 37535 ft 429 kts 347°
2026-04-18 10:09 45.17620 4.64137 37903 ft 428 kts 348°
2026-04-18 10:10 45.20558 4.63472 38165 ft 428 kts 348°
2026-04-18 10:10 45.26432 4.62133 38210 ft 427 kts 347°
2026-04-18 10:11 45.32305 4.60783 38213 ft 428 kts 347°
2026-04-18 10:11 45.38188 4.59436 38223 ft 429 kts 347°
2026-04-18 10:12 45.44079 4.58092 38229 ft 428 kts 347°
2026-04-18 10:12 45.49964 4.56742 38242 ft 428 kts 347°
2026-04-18 10:13 45.55849 4.55377 38232 ft 429 kts 347°
2026-04-18 10:13 45.61735 4.54013 38225 ft 429 kts 347°
2026-04-18 10:14 45.67628 4.52649 38226 ft 429 kts 347°
2026-04-18 10:14 45.73520 4.51273 38212 ft 429 kts 347°
2026-04-18 10:15 45.79376 4.49919 38202 ft 429 kts 347°
2026-04-18 10:15 45.85314 4.48540 38200 ft 429 kts 346°
2026-04-18 10:16 45.91176 4.47169 38226 ft 429 kts 346°
2026-04-18 10:16 45.97071 4.45789 38211 ft 430 kts 346°
2026-04-18 10:17 46.02976 4.44411 38203 ft 430 kts 346°
2026-04-18 10:17 46.08875 4.43015 38220 ft 430 kts 346°
2026-04-18 10:18 46.14779 4.41622 38213 ft 430 kts 346°
2026-04-18 10:18 46.20682 4.40234 38208 ft 430 kts 346°
2026-04-18 10:19 46.26588 4.38838 38215 ft 430 kts 345°
2026-04-18 10:19 46.32446 4.37216 38225 ft 428 kts 341°
2026-04-18 10:20 46.38211 4.35119 38210 ft 427 kts 340°
2026-04-18 10:20 46.43965 4.32960 38211 ft 427 kts 340°
2026-04-18 10:21 46.49746 4.30887 38220 ft 428 kts 341°
2026-04-18 10:21 46.55540 4.28873 38218 ft 428 kts 341°
2026-04-18 10:22 46.61337 4.26845 38210 ft 428 kts 341°
2026-04-18 10:22 46.67128 4.24788 38208 ft 428 kts 341°
2026-04-18 10:23 46.72919 4.22728 38207 ft 429 kts 341°
2026-04-18 10:23 46.78713 4.20665 38207 ft 428 kts 341°
2026-04-18 10:24 46.84508 4.18601 38207 ft 429 kts 341°
2026-04-18 10:24 46.90302 4.16544 38225 ft 429 kts 341°
2026-04-18 10:25 46.96096 4.14467 38212 ft 429 kts 341°
2026-04-18 10:25 47.00914 4.12735 38209 ft 429 kts 341°
2026-04-18 10:26 47.06696 4.10591 38212 ft 426 kts 336°
2026-04-18 10:26 47.12185 4.07426 38215 ft 424 kts 332°
2026-04-18 10:27 47.17654 4.04182 38203 ft 424 kts 333°
2026-04-18 10:27 47.23137 4.00944 38201 ft 425 kts 333°
2026-04-18 10:28 47.28619 3.97698 38199 ft 425 kts 333°
2026-04-18 10:28 47.34103 3.94435 38213 ft 425 kts 333°
2026-04-18 10:29 47.39585 3.91161 38205 ft 425 kts 332°
2026-04-18 10:29 47.45072 3.87884 38203 ft 425 kts 333°
2026-04-18 10:30 47.50564 3.84609 38202 ft 426 kts 333°
2026-04-18 10:30 47.56054 3.81324 38216 ft 426 kts 332°
2026-04-18 10:31 47.61541 3.78019 38206 ft 426 kts 332°
2026-04-18 10:31 47.67029 3.74712 38206 ft 426 kts 332°
2026-04-18 10:32 47.72516 3.71395 38196 ft 426 kts 332°
2026-04-18 10:32 47.78003 3.68070 38210 ft 426 kts 332°
2026-04-18 10:33 47.83489 3.64743 38209 ft 426 kts 332°
2026-04-18 10:33 47.88978 3.61409 38206 ft 426 kts 332°
2026-04-18 10:34 47.94464 3.58070 38209 ft 426 kts 332°
2026-04-18 10:34 47.99915 3.54744 38219 ft 426 kts 332°
2026-04-18 10:35 48.05395 3.51375 38212 ft 426 kts 332°
2026-04-18 10:35 48.10879 3.47994 38207 ft 426 kts 332°
2026-04-18 10:36 48.16359 3.44600 38202 ft 426 kts 332°
2026-04-18 10:36 48.21847 3.41207 38219 ft 427 kts 332°
2026-04-18 10:37 48.27336 3.37812 38209 ft 427 kts 332°
2026-04-18 10:37 48.32826 3.34399 38203 ft 427 kts 332°
2026-04-18 10:38 48.38318 3.30972 38196 ft 427 kts 332°
2026-04-18 10:38 48.43809 3.27521 38203 ft 428 kts 331°
2026-04-18 10:39 48.49290 3.24030 38202 ft 428 kts 331°
2026-04-18 10:39 48.54766 3.20518 38199 ft 428 kts 331°
2026-04-18 10:40 48.60247 3.17000 38202 ft 428 kts 331°
2026-04-18 10:40 48.65728 3.13477 38216 ft 428 kts 331°
2026-04-18 10:41 48.71178 3.09976 38208 ft 429 kts 331°
2026-04-18 10:41 48.76669 3.06441 38203 ft 429 kts 331°
2026-04-18 10:42 48.82160 3.02894 38199 ft 429 kts 331°
2026-04-18 10:42 48.87433 2.98822 38199 ft 424 kts 324°
2026-04-18 10:43 48.92545 2.94347 38203 ft 424 kts 324°
2026-04-18 10:43 48.97661 2.89869 38203 ft 424 kts 324°
2026-04-18 10:44 49.02776 2.85379 38203 ft 424 kts 324°
2026-04-18 10:44 49.07894 2.80871 38219 ft 426 kts 323°
2026-04-18 10:45 49.13020 2.76341 38206 ft 426 kts 323°
2026-04-18 10:45 49.18163 2.71805 38203 ft 427 kts 323°
2026-04-18 10:46 49.23308 2.67250 38195 ft 428 kts 323°
2026-04-18 10:46 49.28460 2.62666 38226 ft 429 kts 323°
2026-04-18 10:47 49.33575 2.58120 38203 ft 430 kts 323°
2026-04-18 10:47 49.38756 2.53502 38202 ft 431 kts 323°
2026-04-18 10:48 49.43943 2.48866 38206 ft 432 kts 323°
2026-04-18 10:48 49.49132 2.44212 38213 ft 432 kts 323°
2026-04-18 10:49 49.53932 2.38834 38231 ft 424 kts 313°
2026-04-18 10:49 49.58390 2.32889 38214 ft 425 kts 313°
2026-04-18 10:50 49.62873 2.26942 38219 ft 425 kts 313°
2026-04-18 10:50 49.67361 2.20987 38225 ft 426 kts 313°
2026-04-18 10:51 49.71848 2.15003 38231 ft 426 kts 313°
2026-04-18 10:51 49.74086 2.12005 37991 ft 426 kts 313°
2026-04-18 10:51 49.76357 2.08955 36920 ft 439 kts 313°
2026-04-18 10:51 49.78674 2.05835 36167 ft 443 kts 312°
2026-04-18 10:52 49.80985 2.02734 35610 ft 438 kts 312°
2026-04-18 10:52 49.83283 1.99656 35054 ft 434 kts 311°
2026-04-18 10:52 49.85552 1.96626 34744 ft 427 kts 311°
2026-04-18 10:52 49.87787 1.93696 34613 ft 415 kts 312°
2026-04-18 10:53 49.89976 1.90861 34468 ft 403 kts 312°
2026-04-18 10:53 49.92113 1.88119 34130 ft 395 kts 312°
2026-04-18 10:53 49.94223 1.85436 33618 ft 389 kts 312°
2026-04-18 10:53 49.96307 1.82794 33091 ft 385 kts 312°
2026-04-18 10:54 49.98380 1.80173 32532 ft 383 kts 312°
2026-04-18 10:54 50.00442 1.77579 31962 ft 380 kts 312°
2026-04-18 10:54 50.02491 1.75013 31421 ft 377 kts 312°
2026-04-18 10:54 50.04523 1.72477 30900 ft 373 kts 312°
2026-04-18 10:55 50.06544 1.69967 30401 ft 370 kts 312°
2026-04-18 10:55 50.08553 1.67480 29859 ft 368 kts 312°
2026-04-18 10:55 50.10546 1.65008 29435 ft 365 kts 311°
2026-04-18 10:55 50.12330 1.62321 29029 ft 352 kts 303°
2026-04-18 10:56 50.13933 1.59452 28616 ft 349 kts 302°
2026-04-18 10:56 50.15507 1.56591 28275 ft 347 kts 302°
2026-04-18 10:56 50.17072 1.53730 28237 ft 347 kts 302°
2026-04-18 10:57 50.20208 1.47984 28250 ft 347 kts 302°
2026-04-18 10:57 50.23329 1.42293 28249 ft 347 kts 302°
2026-04-18 10:58 50.26379 1.36722 28097 ft 346 kts 302°
2026-04-18 10:58 50.27943 1.33852 27613 ft 347 kts 302°
2026-04-18 10:58 50.29496 1.30973 27143 ft 347 kts 302°
2026-04-18 10:58 50.30996 1.28161 26697 ft 348 kts 302°
2026-04-18 10:59 50.32495 1.25315 26246 ft 347 kts 302°
2026-04-18 10:59 50.33969 1.22483 25809 ft 346 kts 302°
2026-04-18 10:59 50.35415 1.19674 25381 ft 346 kts 302°
2026-04-18 10:59 50.36827 1.16900 24968 ft 344 kts 302°
2026-04-18 11:00 50.38263 1.14051 24549 ft 343 kts 302°
2026-04-18 11:00 50.39698 1.11175 24128 ft 341 kts 302°
2026-04-18 11:00 50.41116 1.08303 23696 ft 340 kts 302°
2026-04-18 11:00 50.42559 1.05379 23152 ft 340 kts 304°
2026-04-18 11:01 50.44206 1.02716 22280 ft 347 kts 310°
2026-04-18 11:01 50.45946 1.00083 21469 ft 347 kts 310°
2026-04-18 11:01 50.47692 0.97484 20730 ft 345 kts 311°
2026-04-18 11:02 50.51141 0.92363 19223 ft 339 kts 311°
2026-04-18 11:02 50.52838 0.89828 18493 ft 335 kts 311°
2026-04-18 11:02 50.54520 0.87310 17675 ft 332 kts 310°
2026-04-18 11:02 50.56178 0.84814 16889 ft 328 kts 310°
2026-04-18 11:03 50.57816 0.82335 16118 ft 325 kts 310°
2026-04-18 11:03 50.59435 0.79880 15383 ft 321 kts 310°
2026-04-18 11:03 50.61036 0.77452 14711 ft 317 kts 310°
2026-04-18 11:03 50.62597 0.75090 14326 ft 306 kts 310°
2026-04-18 11:04 50.64117 0.72792 13951 ft 299 kts 310°
2026-04-18 11:04 50.65601 0.70549 13585 ft 292 kts 310°
2026-04-18 11:04 50.67054 0.68353 13235 ft 287 kts 310°
2026-04-18 11:04 50.68655 0.66430 12896 ft 297 kts 328°
2026-04-18 11:05 50.70602 0.65289 12582 ft 300 kts 336°
2026-04-18 11:05 50.72584 0.64278 12271 ft 298 kts 336°
2026-04-18 11:05 50.74556 0.63277 11963 ft 297 kts 336°
2026-04-18 11:05 50.76518 0.62274 11667 ft 296 kts 336°
2026-04-18 11:06 50.78472 0.61269 11359 ft 295 kts 336°
2026-04-18 11:06 50.80389 0.60276 11062 ft 293 kts 336°
2026-04-18 11:06 50.82321 0.59265 10766 ft 292 kts 336°
2026-04-18 11:06 50.84268 0.58235 10459 ft 291 kts 336°
2026-04-18 11:07 50.86152 0.57224 10153 ft 289 kts 335°
2026-04-18 11:07 50.88003 0.56021 9819 ft 286 kts 332°
2026-04-18 11:07 50.89825 0.54763 9483 ft 285 kts 332°
2026-04-18 11:07 50.91639 0.53503 9155 ft 284 kts 331°
2026-04-18 11:08 50.93445 0.52250 8814 ft 283 kts 331°
2026-04-18 11:08 50.95247 0.51002 8482 ft 282 kts 332°
2026-04-18 11:08 50.97036 0.49759 8153 ft 280 kts 332°
2026-04-18 11:08 50.98819 0.48511 7827 ft 279 kts 331°
2026-04-18 11:09 51.00590 0.47269 7497 ft 278 kts 332°
2026-04-18 11:09 51.02345 0.46021 7195 ft 275 kts 332°
2026-04-18 11:09 51.04080 0.44754 6894 ft 273 kts 331°
2026-04-18 11:09 51.05787 0.43500 6627 ft 269 kts 332°
2026-04-18 11:10 51.07471 0.42255 6356 ft 265 kts 331°
2026-04-18 11:10 51.09131 0.41027 6079 ft 261 kts 332°
2026-04-18 11:10 51.10762 0.39811 5815 ft 256 kts 332°
2026-04-18 11:10 51.12361 0.38613 5552 ft 252 kts 332°
2026-04-18 11:11 51.13926 0.37416 5293 ft 247 kts 331°
2026-04-18 11:11 51.15468 0.36232 5018 ft 245 kts 332°
2026-04-18 11:11 51.16990 0.35050 4737 ft 241 kts 330°
2026-04-18 11:11 51.18245 0.33387 4474 ft 233 kts 302°
2026-04-18 11:12 51.18811 0.31032 4277 ft 225 kts 283°
2026-04-18 11:12 51.19138 0.28644 4117 ft 217 kts 282°
2026-04-18 11:12 51.19433 0.26325 3971 ft 210 kts 281°
2026-04-18 11:12 51.19707 0.24091 3865 ft 200 kts 281°
2026-04-18 11:13 51.19969 0.21941 3796 ft 196 kts 281°
2026-04-18 11:13 51.20039 0.19780 3815 ft 197 kts 263°
2026-04-18 11:13 51.19787 0.17637 3825 ft 194 kts 260°
2026-04-18 11:13 51.19516 0.15608 3829 ft 181 kts 260°
2026-04-18 11:14 51.19255 0.13659 3838 ft 179 kts 260°
2026-04-18 11:14 51.18996 0.11734 3716 ft 176 kts 260°
2026-04-18 11:14 51.18739 0.09825 3514 ft 176 kts 260°
2026-04-18 11:14 51.18482 0.07916 3292 ft 176 kts 260°
2026-04-18 11:15 51.18227 0.06030 3073 ft 172 kts 260°
2026-04-18 11:15 51.17977 0.04181 2837 ft 169 kts 260°
2026-04-18 11:15 51.17731 0.02364 2617 ft 166 kts 260°
2026-04-18 11:15 51.17571 0.01182 2472 ft 164 kts 260°
2026-04-18 11:16 51.17334 -0.00565 2350 ft 159 kts 261°
2026-04-18 11:16 51.17103 -0.02271 2130 ft 155 kts 261°
2026-04-18 11:16 51.16803 -0.04472 1850 ft 152 kts 261°
2026-04-18 11:16 51.16652 -0.05588 1709 ft 152 kts 260°
2026-04-18 11:17 51.16439 -0.07139 1499 ft 133 kts 261°
2026-04-18 11:17 51.16251 -0.08522 1332 ft 125 kts 262°
2026-04-18 11:17 51.16070 -0.09846 1169 ft 121 kts 261°
2026-04-18 11:17 51.15893 -0.11146 1006 ft 120 kts 262°
2026-04-18 11:18 51.15718 -0.12441 842 ft 119 kts 262°
2026-04-18 11:18 51.15538 -0.13729 680 ft 118 kts 263°
2026-04-18 11:18 51.15363 -0.15013 513 ft 118 kts 262°
2026-04-18 11:18 51.15183 -0.16296 357 ft 118 kts 263°
2026-04-18 11:19 51.15012 -0.17570 225 ft 114 kts 263°
2026-04-18 11:19 51.14874 -0.18603 202 ft 63 kts 257°
2026-04-18 11:19 51.14811 -0.19053 214 ft 34 kts 258°
2026-04-18 11:19 51.14775 -0.19451 206 ft 38 kts 275°
2026-04-18 11:20 51.14827 -0.19827 204 ft 25 kts 284°
2026-04-18 11:20 51.14895 -0.19877 216 ft 3 kts 82°
2026-04-18 11:20 51.14900 -0.19783 212 ft 12 kts 84°
2026-04-18 11:20 51.14914 -0.19641 212 ft 14 kts 80°
2026-04-18 11:21 51.14938 -0.19468 206 ft 17 kts 78°
2026-04-18 11:21 51.14964 -0.19268 207 ft 20 kts 78°
2026-04-18 11:21 51.14994 -0.19028 203 ft 24 kts 77°
2026-04-18 11:21 51.15035 -0.18750 202 ft 27 kts 76°
2026-04-18 11:22 51.15074 -0.18462 207 ft 24 kts 78°
2026-04-18 11:22 51.15110 -0.18232 207 ft 17 kts 62°
2026-04-18 11:22 51.15218 -0.18216 204 ft 18 kts 346°
2026-04-18 11:22 51.15349 -0.18262 208 ft 22 kts 347°
2026-04-18 11:23 51.15482 -0.18312 204 ft 20 kts 347°
2026-04-18 11:23 51.15602 -0.18350 208 ft 17 kts 350°
2026-04-18 11:23 51.15656 -0.18257 206 ft 11 kts 78°
2026-04-18 11:23 51.15674 -0.18136 204 ft 13 kts 76°
2026-04-18 11:24 51.15695 -0.17984 208 ft 16 kts 78°
2026-04-18 11:24 51.15705 -0.17909 204 ft 5 kts 77°
2026-04-18 11:24 51.15715 -0.17840 204 ft 6 kts 77°
2026-04-18 11:24 51.15697 -0.17803 210 ft 6 kts 158°
2026-04-18 11:25 51.15662 -0.17791 213 ft 5 kts 168°
2026-04-18 11:25 51.15650 -0.17787 208 ft 0 kts 168°